Temperature
24 23 23 23 22 22 21 21 21 20 20 20 20 19 19 19 19 19 19 19 19 19 19 19 19 19 19 19 18 18 18 18 18 18 18 18 18 18 18 17 17 17 17
24 23 23 23 22 22 22 21 21 21 20 20 20 20 19 19 19 19 19 19 19 19 19 19 19 19 19 19 18 18 18 18 18 18 18 17 17 17 17 17 17 17 17
24 24 23 23 22 22 22 22 21 21 20 20 20 20 19 19 19 19 19 19 19 19 19 19 19 19 19 19 19 18 18 18 18 18 18 17 17 17 17 17 17 17 17
24 24 24 23 23 23 22 22 21 21 21 20 20 20 20 20 20 20 19 19 19 19 19 19 19 19 19 19 19 18 18 18 18 18 18 18 18 17 17 17 17 16 16
25 25 24 24 23 23 23 22 22 21 21 21 21 20 20 20 20 20 19 19 19 19 19 19 19 19 19 19 19 18 18 18 18 18 18 17 17 17 17 16 16 16 16
25 25 25 24 24 23 23 22 22 22 21 21 21 21 20 20 20 20 20 20 19 19 19 19 19 19 19 19 19 18 18 18 18 18 17 17 17 17 17 17 16 16 16
25 25 25 24 24 23 23 23 22 22 22 21 21 21 21 20 20 20 20 20 20 20 19 19 19 19 19 19 19 18 18 18 18 18 17 17 17 17 17 17 16 16 16
25 25 25 25 24 24 23 23 23 22 22 22 21 21 21 21 21 20 20 20 20 20 20 19 19 19 19 19 19 19 18 18 18 18 17 17 17 17 17 17 16 16 16
25 25 25 25 24 24 24 23 23 23 22 22 22 22 21 21 21 21 20 20 20 20 20 19 19 19 19 19 19 18 18 18 18 18 17 17 17 17 17 17 17 16 16
25 25 25 25 24 24 24 23 23 23 23 22 22 22 22 21 21 21 20 20 20 20 20 19 19 19 19 19 18 18 18 18 18 18 17 17 17 17 17 17 17 16 16
25 25 25 25 24 24 24 23 23 23 23 23 22 22 22 21 21 21 20 20 20 20 20 20 19 19 19 19 18 18 18 18 18 18 17 17 17 17 17 17 16 16 16
25 25 25 25 24 24 24 23 23 23 23 23 22 22 22 21 21 21 20 20 20 19 19 19 19 19 19 19 18 18 18 18 18 17 17 17 17 17 17 16 16 16 16
24 25 25 24 24 24 24 24 23 23 23 23 22 22 22 21 21 21 21 20 20 19 19 19 19 19 19 19 18 18 18 18 17 17 17 17 17 17 17 16 16 16 16
24 24 24 24 24 24 24 24 24 24 23 23 22 22 22 22 21 21 21 20 20 19 19 19 19 19 19 18 18 18 18 17 17 17 17 17 17 17 16 16 16 16 16
23 24 24 24 24 24 24 23 23 23 23 23 22 22 22 21 21 21 20 20 20 20 19 19 19 19 18 18 18 17 17 17 17 17 17 17 17 16 16 16 16 16 16
23 23 24 24 24 23 23 23 23 23 23 22 22 22 22 21 21 21 21 20 20 19 19 19 19 18 18 18 17 17 17 17 17 17 17 16 16 16 16 16 16 16 15
23 23 23 23 23 23 23 23 23 23 23 22 22 22 22 21 21 21 20 20 20 19 19 19 18 18 18 18 17 17 17 17 16 16 16 16 16 16 15 15 15 15 15
23 23 23 23 23 23 23 23 23 23 22 22 22 22 22 21 21 21 20 20 19 19 19 18 18 18 18 17 17 17 16 16 16 16 16 16 16 15 15 15 15 15 15
23 23 23 23 23 23 23 22 22 22 22 22 22 21 21 21 21 20 20 20 19 19 19 18 18 18 17 17 17 17 16 16 16 16 16 15 15 15 15 15 15 15 15
23 23 23 22 22 22 22 22 22 22 22 21 21 21 21 21 21 20 20 19 19 19 18 18 17 17 17 17 17 16 16 16 16 16 15 15 15 15 15 15 14 15 15
22 22 22 22 22 22 22 21 21 21 21 21 21 20 20 20 20 20 19 19 19 18 18 18 17 17 17 16 16 16 16 16 15 15 15 15 15 15 15 14 14 14 14
21 22 21 21 21 21 21 21 20 20 20 20 20 20 20 19 19 19 19 18 18 18 17 17 17 17 16 16 16 16 15 15 15 15 15 15 14 14 14 14 14 14 14
21 21 21 20 20 20 20 20 20 20 20 19 19 19 19 19 19 18 18 18 18 17 17 17 17 16 16 16 15 15 15 15 15 15 15 14 14 14 14 14 14 14 13
20 20 20 20 20 20 20 20 19 19 19 19 19 19 19 18 18 18 18 17 17 17 17 16 16 16 16 15 15 15 15 15 15 14 14 14 14 14 14 13 13 13 13
19 19 19 19 19 19 19 19 19 19 18 18 18 18 18 17 17 17 17 17 17 16 16 16 16 15 15 15 15 15 15 14 14 14 14 13 13 13 13 13 13 13 13
19 19 19 19 19 18 18 18 18 18 18 18 17 17 17 17 16 16 16 16 16 16 15 15 15 15 15 15 14 14 14 14 14 13 13 13 13 13 13 13 13 13 12
Wind_Speed
11 12 13 12 12 10 9 9 8 7 5 4 3 3 2 1 1 2 4 5 5 6 5 3 2 2 3 3 3 3 2 1 2 3 2 2 1 1 1 1 2 2 4
10 11 11 12 12 12 10 9 9 8 6 5 4 3 3 2 2 2 3 5 5 5 5 4 3 3 3 2 2 3 2 1 2 3 2 1 2 2 0 1 1 2 2
15 14 14 12 12 12 12 11 9 7 6 5 3 2 2 1 0 1 2 3 5 5 5 5 4 3 3 3 3 3 4 2 1 2 3 3 2 1 2 1 1 1 2
13 14 15 14 15 13 11 10 10 9 7 6 5 4 4 3 3 3 3 3 3 4 5 5 5 4 3 3 3 3 3 4 2 1 1 2 4 2 1 2 1 1 1
15 16 16 16 15 14 12 10 10 9 8 7 7 6 4 3 2 2 3 3 2 4 5 5 5 4 4 4 3 3 3 3 3 2 1 1 1 2 2 1 1 1 1
15 15 15 14 13 12 12 11 11 9 8 8 8 7 6 5 4 3 3 3 2 2 3 4 5 4 4 4 4 3 4 3 3 2 2 3 2 2 2 2 2 1 2
15 15 15 15 14 14 13 12 12 10 9 9 8 8 7 7 7 5 4 4 3 3 4 4 4 4 4 4 4 4 3 3 3 3 2 3 3 3 3 3 2 1 1
14 15 16 16 16 15 14 13 13 11 10 10 9 8 7 6 5 5 5 5 4 4 4 5 5 5 4 4 4 3 3 3 3 3 3 2 2 3 3 4 3 1 0
14 15 14 14 14 14 14 14 14 11 10 10 9 8 7 6 6 5 5 4 4 4 4 4 4 4 4 4 4 3 3 3 3 2 2 2 2 2 3 3 5 5 3
12 13 12 13 13 12 11 12 12 12 10 10 9 8 7 7 6 5 5 5 5 4 4 5 4 4 4 4 4 3 3 3 3 3 3 3 3 2 2 3 3 4 4
10 11 12 12 11 11 11 11 11 10 9 10 9 8 7 7 6 5 6 5 4 5 5 5 5 5 4 4 4 4 4 4 3 3 3 3 3 2 2 2 3 3 3
9 11 11 10 10 11 11 11 11 11 10 10 8 8 7 7 6 6 6 5 5 5 5 5 5 5 5 4 5 5 4 4 4 4 3 3 3 2 2 2 3 3 3
8 8 8 9 10 11 11 11 12 12 10 9 9 8 7 7 7 7 6 5 5 5 4 5 5 5 5 5 5 5 4 4 5 4 4 4 3 3 2 3 3 3 3
8 7 7 7 8 8 10 11 11 10 10 9 9 9 9 8 7 6 5 4 5 4 4 5 5 5 4 4 4 4 3 3 3 4 4 4 5 5 4 4 4 4 4
7 6 7 7 7 7 7 7 8 8 10 10 10 10 8 7 6 5 5 4 4 5 4 4 3 4 4 4 4 4 4 4 3 3 3 4 5 6 5 4 4 5 4
8 7 7 7 7 8 7 7 7 8 8 9 9 8 7 6 6 6 5 5 4 3 3 3 3 3 3 4 5 5 4 3 4 4 3 3 3 4 4 5 6 8 7
9 9 10 9 8 7 7 8 8 8 8 8 7 7 7 7 6 6 5 5 4 2 2 2 3 3 4 5 5 5 4 4 3 3 3 3 2 2 2 2 3 6 8
9 8 7 7 7 6 5 5 5 6 7 7 6 6 7 7 6 6 6 5 4 3 3 3 3 3 4 5 5 5 4 3 3 3 4 3 2 2 3 3 3 3 5
7 7 7 6 6 6 5 5 5 5 6 6 6 5 6 6 6 6 6 5 4 3 3 3 3 3 4 5 6 5 3 2 3 3 3 4 3 4 4 3 4 4 4
6 6 6 7 6 5 6 6 5 5 5 4 5 4 5 6 6 6 5 4 3 4 3 3 3 4 4 5 6 6 3 3 2 2 2 4 4 5 5 5 5 5 5
5 7 7 6 6 6 7 6 5 4 4 4 3 3 3 4 5 4 4 4 4 4 3 3 3 3 4 5 6 6 4 4 3 3 3 3 4 5 6 6 6 7 5
5 6 6 5 4 5 7 6 4 3 3 4 3 3 2 2 2 3 3 3 4 4 3 3 2 2 2 3 4 6 6 5 4 4 3 3 5 5 6 5 6 6 4
4 5 6 5 4 3 4 4 2 2 3 3 3 2 2 2 2 2 3 3 3 3 3 3 3 2 2 2 4 6 6 6 4 4 4 4 5 5 5 6 6 4 3
4 5 6 6 4 3 3 3 2 2 3 3 2 2 2 1 1 0 2 3 3 3 3 3 3 2 2 2 2 3 3 4 4 3 3 4 3 3 4 4 4 4 4
3 5 6 5 4 4 3 2 3 3 3 2 3 2 1 1 1 1 1 1 3 4 5 4 4 4 4 6 6 5 4 4 4 2 1 1 1 2 3 3 3 3 3
3 4 4 5 4 4 4 3 3 4 4 3 3 2 2 1 2 2 1 4 2 1 1 4 4 3 5 4 5 6 5 5 5 3 2 3 3 4 4 4 4 3 4
Wind_Direction
182 172 168 162 158 158 157 157 155 161 151 140 139 138 152 162 158 172 174 172 173 165 156 154 155 148 148 166 159 138 122 113 117 89 53 25 21 144 188 188 170 181 186
178 174 170 166 167 169 166 162 164 167 165 163 162 163 158 169 175 186 183 183 176 174 168 158 160 155 148 145 145 135 131 159 139 128 115 34 355 351 261 192 177 175 167
183 180 175 174 171 174 174 171 168 167 169 163 143 125 96 67 91 177 193 198 183 173 163 159 157 157 156 162 167 155 148 164 194 157 149 158 212 273 321 293 200 168 169
184 181 178 177 178 180 174 166 168 168 170 162 157 157 164 180 201 193 190 194 185 171 163 163 161 159 155 157 170 155 149 146 168 225 201 179 162 162 261 321 303 215 177
185 183 181 181 179 176 174 171 168 174 177 171 173 171 180 190 192 177 165 177 184 180 173 165 157 157 161 163 161 152 150 155 162 177 180 147 128 148 161 226 283 318 299
189 186 180 174 175 175 175 174 173 180 181 177 177 179 180 183 177 186 182 188 190 190 181 166 162 167 167 170 172 165 162 171 170 172 168 165 165 181 170 193 222 238 273
186 181 175 173 176 178 180 179 177 183 185 182 185 187 188 187 189 195 194 188 187 196 202 183 172 173 178 176 170 163 172 175 174 184 191 187 194 176 165 160 185 212 267
178 180 179 177 179 180 180 179 182 186 185 186 190 191 191 190 195 197 194 194 195 200 199 185 181 181 178 176 167 165 179 169 178 192 191 197 213 183 171 168 161 163 289
174 173 175 175 178 182 184 184 184 187 189 189 189 191 193 192 196 199 194 196 199 198 186 178 175 179 176 175 168 175 183 172 184 199 203 213 231 201 187 176 167 164 184
172 169 175 178 180 179 181 183 183 186 189 190 191 194 194 196 198 193 195 196 199 189 175 173 174 179 180 180 177 184 195 185 201 205 204 221 226 205 191 184 181 169 169
168 169 173 179 175 170 174 182 183 184 188 191 192 192 193 194 194 198 200 197 197 188 186 187 182 183 188 185 182 196 196 194 211 214 204 222 215 206 210 189 180 173 159
156 170 174 171 169 175 177 181 186 188 193 193 191 195 193 190 194 202 203 198 199 197 193 190 188 194 193 188 188 199 196 197 209 217 207 229 222 208 215 196 193 190 176
151 158 164 168 174 179 182 184 193 194 194 189 188 191 192 191 196 200 199 196 194 197 196 193 194 200 196 194 197 197 196 203 211 208 204 222 214 220 219 209 202 192 178
150 159 166 167 171 179 183 185 194 192 188 185 185 191 196 197 198 195 191 186 182 184 196 205 199 197 195 194 199 193 187 204 220 216 207 211 211 211 209 202 198 183 163
148 160 170 170 168 173 182 183 191 190 186 181 185 193 191 186 181 179 183 181 183 187 191 191 197 201 197 200 196 195 193 200 216 232 225 219 213 209 204 197 190 175 167
163 164 165 167 171 176 184 184 194 192 178 178 188 187 180 180 182 183 182 180 182 186 181 186 193 203 217 209 197 193 196 196 201 223 240 234 219 215 208 201 188 178 176
165 171 177 174 176 176 176 182 189 176 167 177 182 179 178 179 184 183 178 182 183 177 188 199 193 203 216 190 180 184 178 190 205 212 219 229 226 201 201 211 200 196 193
162 166 176 172 168 164 166 169 162 158 166 174 184 182 178 183 185 179 183 184 177 180 196 207 206 206 210 189 180 179 175 188 209 211 203 203 215 215 200 210 219 223 215
150 147 149 150 151 149 149 139 143 151 158 177 187 188 183 183 182 186 188 182 171 180 199 198 200 209 225 200 186 176 176 197 221 219 207 202 203 225 202 197 217 236 246
133 132 132 124 127 139 138 138 149 143 155 178 181 178 179 183 187 189 181 175 176 193 198 196 201 204 214 204 184 173 175 200 229 246 235 213 206 217 204 199 208 224 238
124 127 125 131 143 143 134 134 145 162 179 159 144 150 164 179 179 171 171 168 174 179 189 201 209 208 213 208 189 179 186 200 212 227 239 244 234 224 215 208 215 225 219
118 123 124 127 125 127 131 136 155 178 145 126 121 130 140 157 151 148 164 165 168 179 194 197 214 230 229 213 210 203 209 206 203 219 228 238 235 230 224 222 231 222 205
120 119 121 115 96 97 114 133 175 139 117 118 128 122 111 119 126 156 162 157 169 182 196 197 214 236 239 234 228 217 217 213 213 226 224 229 231 229 235 237 232 218 202
111 114 112 112 108 106 111 140 148 120 126 134 128 100 99 85 73 111 165 166 182 192 197 205 219 229 238 241 234 231 230 225 230 244 243 232 230 230 237 246 240 222 210
119 119 123 129 135 131 141 164 149 138 137 138 132 122 115 115 94 68 80 185 213 211 202 209 202 203 227 239 223 205 214 218 219 208 224 240 244 252 257 251 241 227 218
124 122 131 148 158 153 158 173 171 154 151 158 158 154 152 149 150 137 48 22 21 352 201 190 188 222 236 233 214 209 207 200 185 168 212 233 233 234 238 238 238 229 226
Height
1515 1517 1519 1521 1522 1524 1525 1526 1527 1528 1529 1529 1530 1531 1532 1533 1534 1535 1536 1537 1538 1539 1540 1540 1541 1541 1542 1543 1543 1544 1544 1544 1544 1545 1545 1545 1545 1545 1545 1545 1544 1544 1544
1513 1516 1518 1520 1521 1522 1524 1525 1526 1527 1529 1529 1530 1531 1533 1534 1534 1535 1536 1537 1538 1539 1539 1539 1540 1541 1541 1542 1542 1542 1543 1543 1543 1544 1544 1544 1545 1544 1544 1543 1543 1543 1543
1509 1512 1515 1517 1519 1521 1522 1524 1526 1528 1529 1530 1531 1532 1533 1533 1534 1534 1535 1536 1537 1538 1539 1539 1539 1540 1540 1540 1541 1541 1541 1541 1542 1542 1543 1543 1542 1543 1543 1542 1542 1542 1541
1506 1508 1511 1514 1516 1519 1521 1523 1525 1527 1528 1529 1530 1531 1531 1532 1533 1534 1535 1536 1537 1537 1538 1538 1538 1539 1539 1539 1539 1540 1540 1540 1540 1541 1541 1542 1541 1541 1541 1541 1541 1540 1540
1502 1505 1507 1510 1514 1517 1519 1522 1524 1525 1527 1528 1529 1530 1531 1532 1533 1534 1534 1535 1536 1536 1537 1537 1537 1537 1538 1538 1538 1538 1538 1538 1539 1539 1539 1540 1540 1539 1539 1539 1539 1539 1538
1499 1502 1505 1508 1512 1515 1518 1520 1522 1524 1526 1527 1528 1529 1530 1531 1532 1533 1533 1534 1534 1535 1536 1536 1536 1536 1536 1536 1537 1537 1537 1537 1537 1537 1537 1537 1537 1537 1537 1537 1537 1537 1537
1495 1498 1502 1505 1509 1512 1515 1517 1520 1521 1523 1524 1526 1527 1528 1530 1531 1532 1532 1533 1533 1534 1534 1534 1534 1535 1535 1535 1535 1535 1535 1535 1535 1535 1535 1535 1535 1536 1536 1535 1535 1535 1535
1491 1494 1497 1501 1505 1508 1512 1515 1517 1519 1521 1522 1524 1525 1527 1528 1529 1530 1531 1531 1532 1532 1533 1533 1533 1533 1534 1534 1534 1534 1534 1534 1534 1534 1534 1534 1534 1534 1534 1534 1533 1533 1533
1487 1491 1495 1498 1502 1506 1509 1511 1514 1517 1519 1521 1522 1524 1525 1527 1528 1529 1529 1529 1530 1531 1531 1531 1532 1532 1532 1532 1532 1532 1532 1532 1532 1532 1532 1532 1532 1532 1532 1531 1531 1531 1530
1485 1488 1492 1496 1499 1503 1507 1510 1512 1515 1517 1519 1521 1522 1524 1525 1526 1527 1527 1527 1528 1529 1529 1530 1530 1530 1530 1531 1531 1531 1530 1530 1530 1530 1530 1530 1530 1530 1530 1529 1529 1529 1529
1484 1487 1490 1493 1497 1500 1504 1507 1510 1512 1514 1516 1518 1520 1521 1523 1524 1524 1525 1526 1527 1528 1528 1528 1528 1528 1528 1528 1528 1528 1529 1529 1529 1528 1528 1528 1528 1527 1527 1527 1527 1527 1526
1482 1485 1489 1492 1495 1498 1501 1504 1507 1509 1511 1514 1516 1517 1519 1520 1521 1522 1522 1523 1524 1525 1526 1526 1526 1526 1526 1526 1526 1526 1526 1526 1526 1526 1526 1525 1525 1525 1525 1524 1524 1524 1524
1480 1483 1486 1489 1493 1496 1499 1501 1503 1505 1508 1510 1512 1515 1516 1517 1518 1519 1520 1521 1522 1523 1523 1524 1524 1524 1523 1523 1523 1523 1523 1523 1523 1523 1523 1523 1522 1522 1521 1521 1521 1521 1521
1478 1481 1484 1487 1490 1493 1496 1497 1499 1502 1505 1507 1509 1511 1513 1515 1516 1517 1518 1518 1519 1520 1520 1521 1521 1521 1521 1520 1520 1520 1520 1521 1521 1520 1520 1519 1519 1519 1518 1518 1518 1518 1517
1476 1479 1482 1485 1488 1491 1493 1496 1498 1500 1502 1504 1506 1508 1510 1512 1513 1514 1515 1516 1517 1517 1517 1518 1518 1518 1517 1517 1517 1517 1517 1517 1517 1517 1516 1516 1516 1515 1515 1515 1515 1515 1514
1473 1476 1479 1483 1485 1488 1491 1493 1496 1498 1501 1502 1503 1505 1507 1509 1510 1512 1513 1513 1514 1514 1514 1514 1514 1514 1514 1514 1513 1514 1514 1514 1513 1513 1513 1513 1513 1512 1512 1512 1512 1512 1511
1471 1474 1476 1478 1482 1485 1488 1490 1492 1495 1497 1500 1502 1503 1505 1506 1507 1509 1510 1510 1510 1511 1511 1511 1511 1510 1510 1510 1510 1510 1510 1510 1510 1510 1510 1510 1509 1509 1509 1508 1508 1508 1508
1469 1471 1474 1477 1480 1483 1485 1488 1490 1493 1495 1496 1499 1500 1502 1503 1504 1505 1506 1506 1506 1506 1507 1507 1507 1507 1506 1506 1506 1507 1507 1506 1506 1506 1506 1507 1506 1506 1506 1506 1505 1505 1505
1468 1470 1473 1475 1478 1480 1483 1486 1488 1490 1492 1493 1496 1497 1499 1499 1500 1501 1502 1502 1502 1502 1502 1503 1503 1503 1503 1503 1503 1503 1503 1503 1503 1503 1503 1503 1503 1503 1503 1502 1502 1502 1502
1468 1470 1473 1475 1476 1479 1482 1483 1485 1486 1488 1490 1492 1494 1496 1496 1497 1498 1499 1499 1499 1499 1499 1500 1500 1500 1500 1500 1499 1500 1499 1499 1500 1500 1500 1500 1499 1499 1499 1499 1498 1498 1498
1468 1470 1472 1473 1475 1477 1479 1481 1483 1483 1485 1488 1490 1491 1493 1494 1494 1494 1495 1496 1496 1496 1496 1496 1496 1497 1497 1497 1496 1496 1496 1495 1496 1496 1496 1495 1496 1495 1495 1495 1495 1494 1494
1467 1469 1471 1473 1474 1475 1477 1478 1479 1481 1484 1485 1487 1488 1490 1491 1491 1491 1491 1492 1492 1492 1492 1493 1492 1493 1493 1493 1493 1493 1493 1492 1492 1492 1492 1491 1491 1491 1491 1491 1491 1491 1491
1467 1468 1470 1471 1474 1476 1477 1478 1479 1480 1482 1484 1485 1486 1487 1488 1488 1489 1488 1489 1489 1489 1489 1489 1488 1488 1489 1489 1489 1489 1489 1489 1488 1488 1487 1488 1487 1486 1486 1486 1486 1486 1486
1466 1467 1469 1470 1472 1474 1476 1477 1478 1479 1481 1481 1482 1483 1484 1484 1484 1486 1486 1485 1485 1486 1485 1485 1485 1485 1485 1485 1484 1484 1484 1484 1484 1483 1483 1483 1482 1482 1481 1481 1481 1481 1481
1465 1466 1467 1469 1471 1472 1473 1474 1475 1476 1476 1478 1478 1480 1481 1481 1482 1483 1483 1482 1482 1483 1482 1482 1481 1481 1480 1480 1481 1481 1480 1480 1480 1479 1478 1478 1477 1477 1476 1476 1476 1476 1477
1464 1465 1466 1467 1468 1469 1470 1471 1472 1473 1474 1474 1475 1476 1477 1478 1479 1479 1479 1479 1480 1480 1479 1479 1479 1478 1478 1477 1477 1477 1476 1476 1476 1475 1474 1473 1473 1472 1472 1471 1471 1471 1471